853  
ASUS41 KRLX 121310  
RWRRLX  
WEST VIRGINIA REGIONAL WEATHER ROUNDUP  
NATIONAL WEATHER SERVICE CHARLESTON WV  
800 AM EST TUE DEC 12 2017  
 
NOTE: "FAIR" INDICATES FEW OR NO CLOUDS BELOW 12,000 FEET WITH NO  
SIGNIFICANT WEATHER AND/OR S TO VISIBILITY
.  
 
WVZ003-121400-  
NORTHERN PANHANDLE OF WEST VIRGINIA  
 
CITY SKY/WX TMP DP RH WIND PRES REMARKS
 
WHEELING LGT SNOW 32 29 88 W14 29.66R FOG  

 
 
WVZ009-121400-  
NORTHWEST WEST VIRGINIA  
 
CITY SKY/WX TMP DP RH WIND PRES REMARKS
 
PARKERSBURG LGT SNOW 34 31 88 W14 29.77R FOG  

 
 
WVZ006-121400-  
WESTERN WEST VIRGINIA  
 
CITY SKY/WX TMP DP RH WIND PRES REMARKS
 
HUNTINGTON MIX PCPN 37 30 75 W9 29.81R  

 
 
WVZ015-121400-  
WEST CENTRAL WEST VIRGINIA  
 
CITY SKY/WX TMP DP RH WIND PRES REMARKS
 
CHARLESTON DRIZZLE 39 29 67 W16G26 29.76R  

 
 
WVZ022-031-121400-  
NORTH CENTRAL WEST VIRGINIA  
 
CITY SKY/WX TMP DP RH WIND PRES REMARKS
 
CLARKSBURG CLOUDY 40 28 62 W13G25 29.65R  
MORGANTOWN CLOUDY 39 27 62 W9G17 29.63R  

 
 
WVZ025-035-042-045-121400-  
SOUTHERN WEST VIRGINIA  
 
CITY SKY/WX TMP DP RH WIND PRES REMARKS
 
BECKLEY CLOUDY 36 25 64 W12 29.68R  
LOGAN CLOUDY 37 28 70 W14G20 29.74S  
BLUEFIELD CLOUDY 35 24 64 NW13G21 29.68S  
LEWISBURG CLOUDY 38 26 60 W8 29.66S  

 
 
WVZ047-121400-  
NORTHERN MOUNTAINS OF WEST VIRGINIA  
 
CITY SKY/WX TMP DP RH WIND PRES REMARKS
 
ELKINS CLOUDY 38 25 59 W10G22 29.62R  

 
 
WVZ052-121400-  
EASTERN PANHANDLE OF WEST VIRGINIA  
 
CITY SKY/WX TMP DP RH WIND PRES REMARKS
 
MARTINSBURG CLOUDY 34 27 75 VRB3 29.58F  
PETERSBURG CLOUDY 45 26 49 SW7G25 29.60R  

 
 
 
CLICK HERE TO GO TO PREVIOUS BULLETINS.

The Nexlab WV Page
The Nexlab OH Page
The Nexlab KY Page
The Nexlab VA Page Main Text Page